Time,TemperatureF,DewpointF,PressureIn,WindDirection,WindDirectionDegrees,WindSpeedMPH,WindSpeedGustMPH,Humidity,HourlyPrecipIn,Conditions,Clouds,dailyrainin,SoftwareType,DateUTC
2013-02-20 00:02:00,15.0,10.0,30.06,WSW,250,5.0,-999.0,80,-99.99,,,-99.99,,2013-02-20 05:02:00,
2013-02-20 00:12:00,15.0,10.0,30.06,WSW,250,5.0,-999.0,80,-99.99,,,-99.99,,2013-02-20 05:12:00,
2013-02-20 00:22:00,15.0,10.0,30.07,West,263,5.0,-999.0,80,-99.99,,,-99.99,,2013-02-20 05:22:00,
2013-02-20 00:32:00,15.0,10.0,30.08,WSW,252,6.0,-999.0,81,-99.99,,,-99.99,,2013-02-20 05:32:00,
2013-02-20 00:43:00,15.0,10.0,30.08,WSW,252,6.0,-999.0,81,-99.99,,,-99.99,,2013-02-20 05:43:00,
2013-02-20 00:52:00,15.0,10.0,30.08,SSW,213,4.0,-999.0,81,-99.99,,,-99.99,,2013-02-20 05:52:00,
2013-02-20 01:02:00,15.0,11.0,30.09,NW,323,5.0,-999.0,82,-99.99,,,-99.99,,2013-02-20 06:02:00,
2013-02-20 01:11:00,15.0,10.0,30.09,SW,225,5.0,-999.0,81,-99.99,,,-99.99,,2013-02-20 06:11:00,
2013-02-20 01:22:00,15.0,10.0,30.09,SW,225,5.0,-999.0,81,-99.99,,,-99.99,,2013-02-20 06:22:00,
2013-02-20 01:32:00,15.0,10.0,30.09,SW,234,5.0,-999.0,81,-99.99,,,-99.99,,2013-02-20 06:32:00,
2013-02-20 01:42:00,15.0,10.0,30.09,SW,234,5.0,-999.0,81,-99.99,,,-99.99,,2013-02-20 06:42:00,
2013-02-20 01:51:00,15.0,11.0,30.10,West,265,5.0,-999.0,82,-99.99,,,-99.99,,2013-02-20 06:51:00,
2013-02-20 02:02:00,15.0,10.0,30.11,SSW,210,5.0,-999.0,81,-99.99,,,-99.99,,2013-02-20 07:02:00,
2013-02-20 02:11:00,15.0,10.0,30.11,SSW,210,5.0,-999.0,81,-99.99,,,-99.99,,2013-02-20 07:11:00,
2013-02-20 02:21:00,15.0,10.0,30.11,WSW,245,4.0,-999.0,81,-99.99,,,-99.99,,2013-02-20 07:21:00,
2013-02-20 02:32:00,15.0,10.0,30.11,NW,307,4.0,-999.0,81,-99.99,,,-99.99,,2013-02-20 07:32:00,
2013-02-20 02:42:00,15.0,10.0,30.11,NW,307,4.0,-999.0,81,-99.99,,,-99.99,,2013-02-20 07:42:00,
2013-02-20 02:52:00,15.0,10.0,30.12,West,281,3.0,-999.0,81,-99.99,,,-99.99,,2013-02-20 07:52:00,
2013-02-20 03:05:00,15.0,10.0,30.13,West,277,5.0,-999.0,81,-99.99,,,-99.99,,2013-02-20 08:05:00,
2013-02-20 03:11:00,15.0,10.0,30.13,West,277,5.0,-999.0,81,-99.99,,,-99.99,,2013-02-20 08:11:00,
2013-02-20 03:21:00,14.0,9.0,30.13,WSW,238,4.0,-999.0,81,-99.99,,,-99.99,,2013-02-20 08:21:00,
2013-02-20 03:31:00,14.0,9.0,30.13,SW,217,4.0,-999.0,81,-99.99,,,-99.99,,2013-02-20 08:31:00,
2013-02-20 03:42:00,14.0,9.0,30.13,SW,217,4.0,-999.0,81,-99.99,,,-99.99,,2013-02-20 08:42:00,
2013-02-20 03:52:00,14.0,10.0,30.14,SSW,208,4.0,-999.0,82,-99.99,,,-99.99,,2013-02-20 08:52:00,
2013-02-20 04:02:00,14.0,10.0,30.14,SW,236,6.0,-999.0,82,-99.99,,,-99.99,,2013-02-20 09:02:00,
2013-02-20 04:11:00,14.0,10.0,30.14,SW,236,6.0,-999.0,82,-99.99,,,-99.99,,2013-02-20 09:11:00,
2013-02-20 04:21:00,14.0,10.0,30.14,WNW,294,4.0,-999.0,82,-99.99,,,-99.99,,2013-02-20 09:21:00,
2013-02-20 04:32:00,14.0,10.0,30.14,SW,236,3.0,-999.0,83,-99.99,,,-99.99,,2013-02-20 09:32:00,
2013-02-20 04:42:00,14.0,10.0,30.14,SW,236,3.0,-999.0,83,-99.99,,,-99.99,,2013-02-20 09:42:00,
2013-02-20 04:51:00,14.0,10.0,30.15,SW,219,5.0,-999.0,84,-99.99,,,-99.99,,2013-02-20 09:51:00,
2013-02-20 05:01:00,14.0,10.0,30.15,WNW,289,6.0,-999.0,84,-99.99,,,-99.99,,2013-02-20 10:01:00,
2013-02-20 05:12:00,14.0,10.0,30.15,WNW,289,6.0,-999.0,84,-99.99,,,-99.99,,2013-02-20 10:12:00,
2013-02-20 05:22:00,14.0,10.0,30.16,WSW,242,4.0,-999.0,84,-99.99,,,-99.99,,2013-02-20 10:22:00,
2013-02-20 05:32:00,14.0,12.0,30.17,West,263,6.0,-999.0,92,-99.99,,,-99.99,,2013-02-20 10:32:00,
2013-02-20 05:42:00,14.0,12.0,30.17,West,263,6.0,-999.0,92,-99.99,,,-99.99,,2013-02-20 10:42:00,
2013-02-20 05:51:00,14.0,10.0,30.17,West,268,6.0,-999.0,84,-99.99,,,-99.99,,2013-02-20 10:51:00,
2013-02-20 06:02:00,14.0,10.0,30.18,NNW,336,3.0,-999.0,84,-99.99,,,-99.99,,2013-02-20 11:02:00,
2013-02-20 06:11:00,13.0,9.0,30.18,West,260,5.0,-999.0,84,-99.99,,,-99.99,,2013-02-20 11:11:00,
2013-02-20 06:21:00,13.0,9.0,30.18,West,260,5.0,-999.0,84,-99.99,,,-99.99,,2013-02-20 11:21:00,
2013-02-20 06:32:00,13.0,9.0,30.18,SW,227,6.0,-999.0,84,-99.99,,,-99.99,,2013-02-20 11:32:00,
2013-02-20 06:42:00,13.0,9.0,30.18,SW,227,6.0,-999.0,84,-99.99,,,-99.99,,2013-02-20 11:42:00,
2013-02-20 06:52:00,13.0,9.0,30.19,West,271,5.0,-999.0,84,-99.99,,,-99.99,,2013-02-20 11:52:00,
2013-02-20 07:02:00,13.0,9.0,30.19,WSW,245,4.0,-999.0,84,-99.99,,,-99.99,,2013-02-20 12:02:00,
2013-02-20 07:12:00,13.0,9.0,30.19,WSW,245,4.0,-999.0,84,-99.99,,,-99.99,,2013-02-20 12:12:00,
2013-02-20 07:22:00,13.0,9.0,30.19,WSW,258,4.0,-999.0,84,-99.99,,,-99.99,,2013-02-20 12:22:00,
2013-02-20 07:32:00,13.0,9.0,30.19,WSW,258,4.0,-999.0,84,-99.99,,,-99.99,,2013-02-20 12:32:00,
2013-02-20 07:42:00,13.0,9.0,30.19,WSW,258,4.0,-999.0,84,-99.99,,,-99.99,,2013-02-20 12:42:00,
2013-02-20 08:02:00,13.0,9.0,30.20,NW,309,3.0,-999.0,84,-99.99,,,-99.99,,2013-02-20 13:02:00,
2013-02-20 08:12:00,13.0,9.0,30.20,NW,309,3.0,-999.0,84,-99.99,,,-99.99,,2013-02-20 13:12:00,
2013-02-20 08:22:00,13.0,9.0,30.21,West,272,4.0,-999.0,85,-99.99,,,-99.99,,2013-02-20 13:22:00,
2013-02-20 08:32:00,13.0,9.0,30.21,SW,231,3.0,-999.0,85,-99.99,,,-99.99,,2013-02-20 13:32:00,
2013-02-20 08:42:00,13.0,9.0,30.21,SW,231,3.0,-999.0,85,-99.99,,,-99.99,,2013-02-20 13:42:00,
2013-02-20 08:51:00,13.0,9.0,30.22,WSW,250,5.0,-999.0,85,-99.99,,,-99.99,,2013-02-20 13:51:00,
2013-02-20 09:01:00,13.0,9.0,30.22,West,269,4.0,-999.0,85,-99.99,,,-99.99,,2013-02-20 14:01:00,
2013-02-20 09:11:00,13.0,9.0,30.22,West,269,4.0,-999.0,85,-99.99,,,-99.99,,2013-02-20 14:11:00,
2013-02-20 09:21:00,13.0,9.0,30.23,SW,227,4.0,-999.0,85,-99.99,,,-99.99,,2013-02-20 14:21:00,
2013-02-20 09:32:00,14.0,11.0,30.23,WSW,257,3.0,-999.0,86,-99.99,,,-99.99,,2013-02-20 14:32:00,
2013-02-20 09:42:00,14.0,10.0,30.23,WSW,251,5.0,-999.0,85,-99.99,,,-99.99,,2013-02-20 14:42:00,
2013-02-20 09:52:00,14.0,10.0,30.23,WSW,251,5.0,-999.0,85,-99.99,,,-99.99,,2013-02-20 14:52:00,
2013-02-20 10:02:00,14.0,10.0,30.22,WSW,246,5.0,-999.0,84,-99.99,,,-99.99,,2013-02-20 15:02:00,
2013-02-20 10:12:00,15.0,11.0,30.23,WSW,247,5.0,-999.0,84,-99.99,,,-99.99,,2013-02-20 15:12:00,
2013-02-20 10:22:00,15.0,11.0,30.23,WSW,247,5.0,-999.0,84,-99.99,,,-99.99,,2013-02-20 15:22:00,
2013-02-20 10:32:00,15.0,11.0,30.24,SW,235,6.0,-999.0,85,-99.99,,,-99.99,,2013-02-20 15:32:00,
2013-02-20 10:42:00,15.0,11.0,30.24,WSW,255,5.0,-999.0,85,-99.99,,,-99.99,,2013-02-20 15:42:00,
2013-02-20 10:52:00,15.0,11.0,30.24,WSW,255,5.0,-999.0,85,-99.99,,,-99.99,,2013-02-20 15:52:00,
2013-02-20 11:01:00,15.0,11.0,30.24,WNW,301,6.0,-999.0,84,-99.99,,,-99.99,,2013-02-20 16:01:00,
2013-02-20 11:12:00,15.0,11.0,30.25,West,269,6.0,-999.0,85,-99.99,,,-99.99,,2013-02-20 16:12:00,
2013-02-20 11:21:00,15.0,11.0,30.25,West,269,6.0,-999.0,85,-99.99,,,-99.99,,2013-02-20 16:21:00,
2013-02-20 11:32:00,17.0,13.0,30.26,WSW,251,5.0,-999.0,85,-99.99,,,-99.99,,2013-02-20 16:32:00,
2013-02-20 11:42:00,17.0,13.0,30.26,WSW,251,5.0,-999.0,85,-99.99,,,-99.99,,2013-02-20 16:42:00,
2013-02-20 11:52:00,17.0,13.0,30.26,WSW,254,6.0,-999.0,83,-99.99,,,-99.99,,2013-02-20 16:52:00,
2013-02-20 12:01:00,19.0,15.0,30.26,SW,233,4.0,-999.0,83,-99.99,,,-99.99,,2013-02-20 17:01:00,
2013-02-20 12:11:00,19.0,14.0,30.26,WNW,300,3.0,-999.0,81,-99.99,,,-99.99,,2013-02-20 17:11:00,
2013-02-20 12:21:00,19.0,14.0,30.26,WNW,300,3.0,-999.0,81,-99.99,,,-99.99,,2013-02-20 17:21:00,
2013-02-20 12:32:00,20.0,14.0,30.27,WSW,239,5.0,-999.0,78,-99.99,,,-99.99,,2013-02-20 17:32:00,
2013-02-20 12:42:00,20.0,14.0,30.27,WSW,239,5.0,-999.0,78,-99.99,,,-99.99,,2013-02-20 17:42:00,
2013-02-20 12:52:00,20.0,15.0,30.27,SW,217,5.0,-999.0,80,-99.99,,,-99.99,,2013-02-20 17:52:00,
2013-02-20 13:02:00,20.0,15.0,30.26,West,275,4.0,-999.0,80,-99.99,,,-99.99,,2013-02-20 18:02:00,
2013-02-20 13:11:00,20.0,15.0,30.26,West,275,4.0,-999.0,80,-99.99,,,-99.99,,2013-02-20 18:11:00,
2013-02-20 13:22:00,20.0,15.0,30.26,West,278,6.0,-999.0,80,-99.99,,,-99.99,,2013-02-20 18:22:00,
2013-02-20 13:32:00,20.0,15.0,30.26,WSW,240,5.0,-999.0,80,-99.99,,,-99.99,,2013-02-20 18:32:00,
2013-02-20 13:42:00,20.0,15.0,30.26,WSW,240,5.0,-999.0,80,-99.99,,,-99.99,,2013-02-20 18:42:00,
2013-02-20 13:52:00,21.0,16.0,30.26,NW,306,4.0,-999.0,80,-99.99,,,-99.99,,2013-02-20 18:52:00,
2013-02-20 14:01:00,21.0,16.0,30.26,West,281,4.0,-999.0,79,-99.99,,,-99.99,,2013-02-20 19:01:00,
2013-02-20 14:11:00,21.0,16.0,30.26,West,281,4.0,-999.0,79,-99.99,,,-99.99,,2013-02-20 19:11:00,
2013-02-20 14:21:00,21.0,16.0,30.26,NW,319,4.0,-999.0,80,-99.99,,,-99.99,,2013-02-20 19:21:00,
2013-02-20 14:31:00,21.0,16.0,30.26,West,269,6.0,-999.0,79,-99.99,,,-99.99,,2013-02-20 19:31:00,
2013-02-20 14:41:00,21.0,16.0,30.26,West,269,6.0,-999.0,79,-99.99,,,-99.99,,2013-02-20 19:41:00,
2013-02-20 14:52:00,21.0,16.0,30.26,West,276,6.0,-999.0,80,-99.99,,,-99.99,,2013-02-20 19:52:00,
2013-02-20 15:01:00,22.0,16.0,30.27,NNW,348,5.0,-999.0,77,-99.99,,,-99.99,,2013-02-20 20:01:00,
2013-02-20 15:11:00,22.0,17.0,30.27,West,279,5.0,-999.0,80,-99.99,,,-99.99,,2013-02-20 20:11:00,
2013-02-20 15:21:00,22.0,17.0,30.27,West,279,5.0,-999.0,80,-99.99,,,-99.99,,2013-02-20 20:21:00,
2013-02-20 15:31:00,22.0,16.0,30.29,SSW,211,4.0,-999.0,78,-99.99,,,-99.99,,2013-02-20 20:31:00,
2013-02-20 15:41:00,22.0,16.0,30.29,West,269,3.0,-999.0,79,-99.99,,,-99.99,,2013-02-20 20:41:00,
2013-02-20 15:51:00,22.0,16.0,30.29,West,269,3.0,-999.0,79,-99.99,,,-99.99,,2013-02-20 20:51:00,
2013-02-20 16:01:00,22.0,16.0,30.29,West,271,4.0,-999.0,79,-99.99,,,-99.99,,2013-02-20 21:01:00,
2013-02-20 16:11:00,22.0,16.0,30.29,West,277,2.0,-999.0,78,-99.99,,,-99.99,,2013-02-20 21:11:00,
2013-02-20 16:21:00,22.0,16.0,30.29,West,277,2.0,-999.0,78,-99.99,,,-99.99,,2013-02-20 21:21:00,
2013-02-20 16:32:00,22.0,16.0,30.29,West,277,3.0,-999.0,79,-99.99,,,-99.99,,2013-02-20 21:32:00,
2013-02-20 16:42:00,22.0,16.0,30.29,West,277,3.0,-999.0,79,-99.99,,,-99.99,,2013-02-20 21:42:00,
2013-02-20 16:51:00,22.0,16.0,30.30,NNW,334,4.0,-999.0,79,-99.99,,,-99.99,,2013-02-20 21:51:00,
2013-02-20 17:02:00,22.0,17.0,30.29,WNW,302,3.0,-999.0,80,-99.99,,,-99.99,,2013-02-20 22:02:00,
2013-02-20 17:11:00,22.0,17.0,30.29,WNW,302,3.0,-999.0,80,-99.99,,,-99.99,,2013-02-20 22:11:00,
2013-02-20 17:21:00,22.0,17.0,30.29,WNW,302,3.0,-999.0,80,-99.99,,,-99.99,,2013-02-20 22:21:00,
2013-02-20 17:31:00,21.0,16.0,30.29,NNW,327,3.0,-999.0,82,-99.99,,,-99.99,,2013-02-20 22:31:00,
2013-02-20 17:43:00,21.0,16.0,30.29,NNW,327,3.0,-999.0,82,-99.99,,,-99.99,,2013-02-20 22:43:00,
2013-02-20 17:52:00,21.0,16.0,30.29,WNW,298,3.0,-999.0,81,-99.99,,,-99.99,,2013-02-20 22:52:00,
2013-02-20 18:01:00,21.0,16.0,30.29,NE,53,2.0,-999.0,81,-99.99,,,-99.99,,2013-02-20 23:01:00,
2013-02-20 18:12:00,21.0,16.0,30.29,NNW,348,3.0,-999.0,82,-99.99,,,-99.99,,2013-02-20 23:12:00,
2013-02-20 18:22:00,21.0,16.0,30.29,NNW,348,3.0,-999.0,82,-99.99,,,-99.99,,2013-02-20 23:22:00,
2013-02-20 18:32:00,21.0,16.0,30.29,NNW,338,3.0,-999.0,82,-99.99,,,-99.99,,2013-02-20 23:32:00,
2013-02-20 18:42:00,21.0,16.0,30.29,NNW,338,3.0,-999.0,82,-99.99,,,-99.99,,2013-02-20 23:42:00,
2013-02-20 18:52:00,21.0,17.0,30.30,NNW,328,1.0,-999.0,83,-99.99,,,-99.99,,2013-02-20 23:52:00,
2013-02-20 19:03:00,21.0,17.0,30.31,West,274,1.0,-999.0,84,-99.99,,,-99.99,,2013-02-21 00:03:00,
2013-02-20 19:11:00,21.0,17.0,30.31,West,274,1.0,-999.0,84,-99.99,,,-99.99,,2013-02-21 00:11:00,
2013-02-20 19:22:00,21.0,17.0,30.31,North,355,1.0,-999.0,86,-99.99,,,-99.99,,2013-02-21 00:22:00,
2013-02-20 19:32:00,21.0,17.0,30.31,NW,309,0.0,-999.0,85,-99.99,,,-99.99,,2013-02-21 00:32:00,
2013-02-20 19:42:00,21.0,17.0,30.31,NW,309,0.0,-999.0,85,-99.99,,,-99.99,,2013-02-21 00:42:00,
2013-02-20 19:52:00,21.0,17.0,30.32,WNW,300,1.0,-999.0,86,-99.99,,,-99.99,,2013-02-21 00:52:00,
2013-02-20 20:01:00,20.0,16.0,30.32,WNW,290,1.0,-999.0,86,-99.99,,,-99.99,,2013-02-21 01:01:00,
2013-02-20 20:11:00,20.0,16.0,30.32,WNW,290,1.0,-999.0,86,-99.99,,,-99.99,,2013-02-21 01:11:00,
2013-02-20 20:21:00,20.0,17.0,30.32,WNW,292,2.0,-999.0,87,-99.99,,,-99.99,,2013-02-21 01:21:00,
2013-02-20 20:32:00,20.0,17.0,30.32,West,263,1.0,-999.0,87,-99.99,,,-99.99,,2013-02-21 01:32:00,
2013-02-20 20:42:00,20.0,17.0,30.32,West,263,1.0,-999.0,87,-99.99,,,-99.99,,2013-02-21 01:42:00,
2013-02-20 20:51:00,20.0,17.0,30.32,WNW,302,1.0,-999.0,87,-99.99,,,-99.99,,2013-02-21 01:51:00,
2013-02-20 21:02:00,20.0,17.0,30.32,NW,310,0.0,-999.0,87,-99.99,,,-99.99,,2013-02-21 02:02:00,
2013-02-20 21:11:00,20.0,17.0,30.32,NW,310,0.0,-999.0,87,-99.99,,,-99.99,,2013-02-21 02:11:00,
2013-02-20 21:21:00,20.0,17.0,30.32,SW,235,0.0,-999.0,87,-99.99,,,-99.99,,2013-02-21 02:21:00,
2013-02-20 21:32:00,20.0,17.0,30.32,SW,235,0.0,-999.0,87,-99.99,,,-99.99,,2013-02-21 02:32:00,
2013-02-20 21:42:00,20.0,17.0,30.32,SW,235,0.0,-999.0,87,-99.99,,,-99.99,,2013-02-21 02:42:00,
2013-02-20 21:51:00,20.0,17.0,30.32,SW,235,0.0,-999.0,87,-99.99,,,-99.99,,2013-02-21 02:51:00,
2013-02-20 22:02:00,21.0,17.0,30.32,NNW,339,5.0,-999.0,85,-99.99,,,-99.99,,2013-02-21 03:02:00,
2013-02-20 22:12:00,21.0,17.0,30.32,NNW,339,5.0,-999.0,85,-99.99,,,-99.99,,2013-02-21 03:12:00,
2013-02-20 22:21:00,21.0,17.0,30.32,North,9,6.0,-999.0,83,-99.99,,,-99.99,,2013-02-21 03:21:00,
2013-02-20 22:32:00,21.0,17.0,30.32,North,360,6.0,-999.0,83,-99.99,,,-99.99,,2013-02-21 03:32:00,
2013-02-20 22:42:00,21.0,17.0,30.32,North,360,6.0,-999.0,83,-99.99,,,-99.99,,2013-02-21 03:42:00,
2013-02-20 22:51:00,21.0,16.0,30.31,North,5,10.0,-999.0,82,-99.99,,,-99.99,,2013-02-21 03:51:00,
2013-02-20 23:01:00,21.0,16.0,30.32,North,5,8.0,-999.0,82,-99.99,,,-99.99,,2013-02-21 04:01:00,
2013-02-20 23:11:00,21.0,16.0,30.32,North,5,8.0,-999.0,82,-99.99,,,-99.99,,2013-02-21 04:11:00,
2013-02-20 23:22:00,21.0,16.0,30.32,North,355,8.0,-999.0,82,-99.99,,,-99.99,,2013-02-21 04:22:00,
2013-02-20 23:32:00,21.0,17.0,30.32,North,351,4.0,-999.0,83,-99.99,,,-99.99,,2013-02-21 04:32:00,
2013-02-20 23:42:00,21.0,17.0,30.32,North,351,4.0,-999.0,83,-99.99,,,-99.99,,2013-02-21 04:42:00,
2013-02-20 23:52:00,21.0,16.0,30.31,North,351,6.0,-999.0,82,-99.99,,,-99.99,,2013-02-21 04:52:00,